Probability
0 1 2 2 1 0 0 0 0 0 0 0 0 0 0 0 0 0 0 0 0 0 0 0 0 0 0 0 0 0 0 0 0 0 0 0 0 0 0 0 0 0 0
0 1 2 2 1 0 0 0 0 0 0 0 0 0 0 0 0 0 0 0 0 0 0 0 0 0 0 0 0 0 0 0 0 0 0 0 0 0 0 0 0 0 0
0 1 2 2 1 0 0 0 0 0 0 0 0 0 0 0 0 0 0 0 0 0 0 0 0 0 0 0 0 0 0 0 0 0 0 0 0 0 0 0 0 0 0
0 0 1 1 1 0 0 0 0 0 0 0 0 0 0 0 0 0 0 0 0 0 0 0 0 0 0 0 0 0 0 0 0 0 0 0 0 0 0 0 0 0 0
0 0 0 1 1 0 0 0 0 0 0 0 0 0 0 0 0 0 0 0 0 0 0 0 0 0 0 0 0 0 0 0 0 0 0 0 0 0 0 0 0 0 0
0 0 0 1 1 0 0 0 0 0 0 0 0 0 0 0 0 0 0 0 0 0 0 0 0 0 0 0 0 0 0 0 0 0 0 0 0 0 0 0 0 0 0
1 0 0 0 0 0 0 0 0 0 0 0 0 0 0 0 0 0 0 0 0 0 0 0 0 0 0 0 0 0 0 0 0 0 0 0 0 0 0 0 0 0 0
2 1 0 0 0 0 0 0 0 0 0 0 0 0 0 0 0 0 0 0 0 0 0 0 0 0 0 0 0 0 0 0 0 0 0 0 0 0 0 0 0 0 0
3 2 1 0 0 0 0 0 0 0 0 0 0 0 0 0 0 0 0 0 0 0 0 0 0 0 0 0 0 0 0 0 0 0 0 0 0 0 0 0 0 0 0
3 3 2 0 0 0 0 0 0 0 0 0 0 0 0 0 0 0 0 0 0 0 0 0 0 0 0 0 0 0 0 0 0 0 0 0 0 0 0 0 0 0 0
3 3 1 1 0 0 0 0 0 0 0 0 0 0 0 0 0 0 0 0 0 0 0 0 0 0 0 0 0 0 0 0 0 0 0 0 0 0 0 0 0 0 0
3 2 1 1 0 0 0 0 0 0 0 0 0 0 0 0 0 0 0 0 0 0 0 0 0 0 0 0 0 0 0 0 0 0 0 0 0 0 0 0 0 0 0
3 2 1 0 0 0 0 0 0 0 0 1 2 1 0 0 0 0 0 0 0 0 0 0 0 0 0 0 0 0 0 0 0 0 0 0 0 0 0 0 0 0 0
3 2 1 0 0 0 0 0 0 0 1 2 2 2 1 0 0 0 0 0 0 0 0 0 0 0 0 0 0 0 0 0 0 0 0 0 0 0 0 0 0 0 0
2 2 1 0 0 0 0 0 0 0 1 2 1 1 1 0 0 0 0 0 0 0 0 0 0 0 0 0 0 0 0 0 0 0 0 0 0 0 0 0 0 0 0
1 1 0 0 0 0 0 0 0 0 1 2 1 0 0 0 0 0 0 0 0 0 0 0 0 0 0 0 0 0 0 0 0 0 0 0 0 0 0 0 0 0 0
0 0 0 0 0 0 0 0 0 0 1 2 1 0 0 0 0 0 0 0 0 0 0 0 0 0 0 0 0 0 0 0 0 0 0 0 0 0 0 0 0 0 0
0 0 0 0 0 0 0 0 0 0 0 1 1 0 0 0 0 0 0 0 0 0 0 0 0 0 0 0 0 0 0 0 0 0 0 0 0 0 0 0 0 0 0
0 0 0 0 0 0 0 0 0 0 0 0 0 0 0 0 0 0 0 0 0 0 0 0 0 0 0 0 0 0 0 0 0 0 0 0 0 0 0 0 0 0 0
0 0 0 0 0 0 0 0 0 0 0 0 0 0 0 0 0 0 0 0 0 0 0 0 0 0 0 0 0 0 0 0 0 0 0 0 0 0 0 0 0 0 0
0 0 0 0 0 0 0 0 0 0 0 0 0 0 0 0 0 0 0 0 0 0 0 0 0 0 0 0 0 0 0 0 0 0 0 0 0 0 0 0 0 0 0
0 0 0 0 0 0 0 0 0 0 0 0 0 0 0 0 0 0 0 0 0 0 0 0 0 0 0 0 0 0 0 0 0 0 0 0 0 0 0 0 0 0 0
0 0 0 0 0 0 0 0 0 0 0 0 0 0 0 0 0 0 0 0 0 0 0 0 0 0 0 0 0 0 0 0 0 0 0 0 0 0 0 0 0 0 0
0 0 0 0 0 0 0 0 0 0 0 0 0 0 0 0 0 0 0 0 0 0 0 0 0 0 0 0 0 0 0 0 0 0 0 0 0 0 0 0 0 0 0
0 0 0 0 0 0 0 0 0 0 0 0 0 0 0 0 0 0 0 0 0 0 0 0 0 0 0 0 0 0 0 0 0 0 0 0 0 0 0 0 0 0 0
0 0 0 0 0 0 0 0 0 0 0 0 0 0 0 0 0 0 0 0 0 0 0 0 0 0 0 0 0 0 0 0 0 0 0 0 0 0 0 0 0 0 0
Wind_Speed
1 2 3 2 5 7 8 8 8 8 8 9 9 9 9 9 9 8 8 9 9 9 9 10 10 9 9 9 10 10 10 10 9 9 9 9 9 9 9 8 6 7 9
1 1 3 3 6 7 8 8 8 8 8 8 9 9 9 9 9 8 8 8 8 8 9 9 9 9 9 9 9 9 9 9 9 8 6 6 8 8 8 8 7 6 8
1 2 3 6 7 8 8 8 7 8 8 9 9 8 8 8 9 8 8 8 7 8 8 8 8 8 8 8 8 8 8 8 8 6 3 4 6 7 7 7 7 6 6
2 3 4 8 8 8 8 8 7 8 8 8 8 8 8 8 8 8 8 8 7 8 8 8 8 8 8 7 7 7 7 7 6 3 2 4 4 7 6 6 5 5 5
3 4 6 8 9 9 9 8 8 8 8 8 8 8 8 8 8 8 7 7 7 7 7 7 7 8 8 7 7 7 6 6 3 2 3 3 3 5 5 5 5 4 4
4 4 6 8 8 9 9 9 8 8 8 8 8 8 8 8 8 7 7 7 7 7 7 7 7 7 7 7 7 7 6 4 2 2 3 3 3 5 4 4 4 4 3
4 4 5 7 8 8 8 9 8 8 9 8 8 8 8 8 8 8 7 7 7 7 7 7 7 6 6 6 6 6 6 4 3 3 3 3 4 5 4 4 3 3 4
4 4 5 6 7 8 8 8 8 8 8 8 8 8 8 8 8 8 8 8 7 6 6 6 6 6 6 6 6 6 5 4 2 3 3 3 5 5 4 4 4 3 4
4 4 4 4 4 6 7 8 8 8 8 8 8 8 8 8 8 8 8 8 7 6 6 6 6 6 6 6 6 5 5 4 3 2 3 3 5 5 5 4 4 4 3
4 4 3 3 3 3 4 7 7 8 8 8 8 8 7 7 7 7 7 7 7 7 6 6 6 6 5 6 6 5 4 3 3 3 2 4 5 5 5 5 5 4 3
4 3 3 3 3 3 3 4 5 6 7 6 6 7 4 3 3 4 6 7 7 6 6 6 6 5 4 4 5 4 3 2 3 3 3 5 5 5 5 5 5 5 4
3 3 3 3 3 3 2 2 2 2 3 3 3 3 2 2 3 3 5 6 6 5 5 6 5 3 2 2 2 2 2 3 3 2 3 5 5 6 6 6 6 6 5
2 2 2 2 2 2 1 1 1 1 2 2 2 2 2 2 2 2 1 2 2 3 2 3 2 2 2 2 3 2 3 3 2 2 3 5 5 6 6 5 6 5 5
2 3 2 2 2 2 2 1 1 1 1 1 2 2 1 1 1 1 1 2 2 2 2 2 2 3 3 3 3 3 3 2 2 2 3 6 6 6 6 6 6 6 6
2 2 2 2 1 1 1 1 1 1 1 1 1 1 2 1 1 1 1 2 2 2 2 2 2 2 3 3 3 3 3 2 2 3 2 4 5 6 7 7 7 7 7
2 2 2 1 1 1 1 0 0 1 1 1 1 2 2 1 1 1 1 2 2 2 2 2 3 3 2 2 3 3 3 2 2 2 2 2 4 5 6 7 8 8 8
2 2 2 1 1 1 0 0 0 0 0 1 1 1 1 1 1 1 1 2 2 2 3 2 3 2 2 2 3 3 3 3 2 2 3 3 2 3 4 6 7 7 8
3 2 2 1 1 0 0 1 0 0 1 1 1 1 2 2 2 1 1 2 2 2 2 2 2 2 2 3 3 3 3 2 3 3 2 3 3 3 3 5 7 7 8
3 3 2 2 1 1 0 1 1 1 1 1 1 1 2 2 2 2 2 2 2 2 2 2 3 3 3 3 3 3 3 3 3 2 2 3 3 3 3 3 5 6 7
3 3 3 2 2 1 0 1 1 1 1 1 1 2 2 2 2 2 2 3 3 2 2 3 3 3 3 3 4 4 3 3 2 2 2 2 2 3 3 4 3 3 5
3 3 3 3 3 2 1 0 0 0 0 1 1 2 2 2 2 2 1 2 2 2 3 3 3 3 3 3 3 3 2 2 2 2 2 2 3 3 3 3 3 3 3
3 3 3 3 2 2 2 1 0 0 0 1 1 1 2 3 3 2 2 2 2 2 2 2 2 2 2 3 3 3 3 3 1 2 2 2 3 3 3 3 3 3 4
3 3 3 3 2 2 2 1 1 0 0 0 1 1 2 2 3 2 2 2 2 2 2 2 2 2 3 2 2 3 3 3 4 2 3 3 3 3 3 3 3 3 4
3 3 2 3 2 2 1 1 1 1 1 1 1 1 2 2 2 2 3 2 2 2 2 2 2 2 3 2 2 2 3 4 4 4 3 3 4 5 4 3 3 4 4
3 3 2 2 2 2 1 0 0 1 1 2 2 2 2 2 2 3 3 3 2 2 2 3 2 2 2 3 2 3 3 4 4 5 6 5 4 4 4 4 3 3 4
3 2 2 2 2 2 1 0 1 1 1 1 2 2 2 2 2 3 3 3 3 2 3 3 2 2 2 3 3 2 3 3 3 4 6 7 6 5 4 3 3 4 4
Wind_Direction
345 348 353 46 89 93 94 98 101 100 98 98 98 94 91 88 86 82 82 83 81 80 78 75 69 69 72 69 66 63 61 60 59 60 61 62 62 63 62 55 48 66 61
301 9 22 64 87 88 89 89 92 96 96 97 99 95 92 90 87 82 83 81 80 79 79 76 70 70 72 70 67 64 61 60 58 54 52 69 64 57 57 53 43 53 58
63 80 65 56 80 86 85 84 88 91 91 90 91 90 91 90 87 83 79 75 76 76 76 75 72 72 72 68 67 65 62 59 54 42 23 60 67 56 53 52 50 55 55
80 82 65 54 69 78 81 80 84 87 89 87 84 84 85 85 84 81 75 71 72 73 71 72 72 70 69 66 66 66 61 57 48 10 40 48 51 52 46 44 42 49 48
87 83 66 54 65 68 70 73 77 82 86 86 83 81 81 78 76 74 69 65 65 69 70 69 70 66 64 63 65 64 59 51 33 3 44 40 44 45 39 36 37 37 35
88 84 76 58 63 66 65 65 68 74 81 83 81 78 79 76 70 67 64 58 57 63 66 67 66 65 65 62 61 59 54 40 330 33 35 30 31 36 24 25 25 23 22
86 81 86 58 59 61 62 62 63 70 75 79 78 76 74 71 66 60 56 57 55 58 62 63 61 61 62 60 58 53 45 14 359 24 20 17 20 10 4 7 5 16 17
83 75 82 59 56 58 59 59 60 65 68 71 74 72 70 68 65 59 53 50 51 54 54 57 58 58 55 52 52 47 33 354 2 14 9 7 20 1 358 4 7 10 12
83 74 73 74 69 61 56 54 53 56 59 62 65 65 62 59 58 56 49 44 44 51 53 51 52 54 53 49 44 36 25 350 333 8 2 6 14 358 359 1 359 2 9
77 68 62 61 63 69 69 57 52 53 54 57 59 57 58 60 59 51 44 42 41 45 48 48 47 45 47 45 38 30 7 309 341 353 355 21 12 351 349 352 354 353 356
66 57 54 49 47 53 60 62 63 59 55 61 64 59 57 61 60 55 41 36 36 38 41 40 43 41 38 46 35 12 329 336 345 345 354 18 1 353 354 353 351 348 345
63 47 48 46 45 50 54 64 62 62 61 58 60 63 54 44 37 32 48 35 31 32 39 36 30 30 354 5 32 337 333 344 344 345 12 19 357 349 347 347 347 347 348
65 47 45 46 47 45 44 46 38 42 46 44 47 42 43 45 38 24 27 35 27 24 24 30 14 356 351 347 340 340 341 333 339 347 9 17 357 349 345 346 346 346 347
48 31 24 31 42 40 36 40 39 43 44 42 34 29 38 42 27 17 10 360 358 358 355 351 346 350 343 336 332 334 334 328 335 341 12 22 2 347 341 338 336 336 335
32 18 7 7 33 50 48 31 33 31 37 47 34 24 22 32 18 14 2 353 343 341 334 332 333 334 333 339 331 325 325 327 324 319 349 25 5 352 343 338 336 333 330
1 346 342 356 14 55 57 44 30 17 21 36 41 16 12 6 355 351 351 342 334 328 323 317 321 317 322 329 327 319 312 312 312 313 323 3 21 359 352 348 346 342 334
339 338 332 324 10 76 80 195 12 11 347 34 37 5 2 358 348 345 342 339 334 326 318 313 317 318 320 325 322 322 312 306 306 314 322 324 339 13 4 352 348 348 345
347 347 343 340 340 84 114 166 143 55 29 28 24 5 1 358 347 339 343 339 333 329 326 325 320 321 325 326 318 318 315 306 305 312 318 326 327 338 4 5 352 347 341
352 352 353 348 343 310 113 140 129 96 46 23 24 10 2 5 354 343 343 340 339 338 340 336 334 332 329 328 318 311 306 306 310 308 314 325 329 333 332 4 359 353 347
359 4 6 360 357 341 75 109 117 80 44 24 12 7 3 357 347 341 347 348 346 345 342 338 335 336 330 326 314 304 298 300 303 298 305 313 325 328 330 334 334 345 347
8 6 8 3 6 1 353 33 145 312 350 14 12 360 354 346 339 343 343 344 344 337 332 332 332 331 337 331 310 306 291 276 284 284 301 309 318 315 320 330 329 330 332
355 353 354 350 350 2 351 337 323 295 298 1 4 358 360 353 343 336 335 334 330 320 325 323 327 323 332 336 314 306 296 268 277 279 285 291 301 301 310 323 332 330 327
332 327 338 337 336 349 356 7 44 132 62 22 341 358 3 355 349 347 336 329 332 327 316 319 313 314 312 326 328 303 296 299 316 282 289 295 305 304 304 309 317 324 323
309 308 318 326 335 343 349 353 29 329 309 326 332 339 355 357 347 344 337 332 335 328 319 315 317 303 301 302 306 295 291 297 291 295 288 307 312 305 305 312 314 324 329
303 306 313 317 337 340 345 331 282 330 339 350 350 349 346 354 352 350 349 340 333 326 325 321 313 304 297 295 296 297 285 280 274 276 289 300 305 306 306 307 311 319 325
315 310 310 317 329 334 331 312 258 269 310 343 335 332 342 355 356 358 354 344 336 331 329 325 322 318 312 308 304 304 299 293 293 283 283 296 299 301 305 302 309 316 317